レモン彗星

507P/Lemmon (2007)

English version
Home page
Updated on July 25, 2025

---------------------------------------------------------------------

・ プロフィール

符号 507P/2007 SA24
発見日 2007年9月25日
発見光度 20.6等
発見者 Mt. Lemmon

・ 軌道要素

                    Epoch = 2007 Apr. 10.0 TT
     T = 2007 Mar. 30.34381 TT        Peri. = 108.78028
     e = 0.5688950                    Node  = 233.50350 2000.0
     q = 2.6946916 AU                 Incl. =  17.11015
       a =  6.2506625 AU   n = 0.06306886   P =  15.63 years

・ 光度変化

        m1 = 13.0 + 5 logΔ + 10.0 log r(t - 250)

---------------------------------------------------------------------

軌道要素は、CBET 5548に掲載されたものです。
光度グラフはComet for Windowsで作成したものです。

---------------------------------------------------------------------

Copyright(C) Seiichi Yoshida (comet@aerith.net). All rights reserved.